Wind_Speed
23 23 26 27 29 31 32 33 34 36 40 42 45 47 50 52 54 61 58 60 65 72 77 80 86 91 93 93 95 86 63 45 48 54 64 76 84 95 97 88 89 85 80 77 72
26 30 34 33 35 36 37 38 40 43 46 48 49 51 53 56 61 63 66 70 77 80 83 87 92 94 94 96 95 86 77 57 65 63 67 76 85 94 102 95 89 89 86 80 78
31 34 34 34 35 40 42 45 46 46 49 49 51 58 61 63 65 69 73 78 84 87 91 97 100 99 97 95 96 91 62 70 62 67 75 76 84 93 99 100 94 94 90 86 81
35 38 39 39 41 46 48 48 48 50 50 52 55 58 64 64 76 73 78 83 90 96 98 101 104 107 104 101 96 87 69 68 67 76 82 77 87 90 98 97 103 97 95 90 86
38 41 41 43 44 47 47 48 51 52 56 58 60 64 66 66 77 85 87 88 95 100 105 108 108 104 100 97 95 87 75 67 70 80 90 86 84 94 97 95 106 103 97 95 91
41 42 43 45 45 48 51 52 56 57 58 61 66 68 70 76 81 86 94 97 104 105 109 115 109 102 98 94 91 83 74 66 69 80 91 94 90 102 91 93 104 109 101 100 98
41 43 45 47 46 49 52 54 58 60 61 66 68 73 73 79 86 92 97 103 109 112 119 118 110 101 91 86 83 77 70 66 66 81 89 99 96 91 93 99 104 112 107 103 101
41 43 45 47 47 50 54 57 60 63 65 69 73 76 76 82 91 95 105 110 115 122 124 116 101 92 86 79 72 70 64 63 66 81 92 105 96 91 100 100 104 112 115 108 104
41 44 45 49 50 52 57 58 61 65 69 73 76 79 80 85 90 100 106 114 118 125 122 105 93 84 76 71 64 63 61 58 64 78 93 102 94 94 104 104 104 109 117 114 109
45 46 48 52 55 54 60 62 64 67 70 74 74 79 83 90 97 105 113 117 126 129 114 99 87 73 67 62 60 59 55 54 59 73 90 101 97 105 111 112 110 112 118 120 113
47 50 51 55 58 59 62 65 67 69 71 73 76 80 87 94 102 111 120 123 131 129 111 97 82 65 59 55 56 54 54 57 62 68 83 101 100 111 114 113 110 110 113 121 117
53 54 56 58 61 63 67 70 72 74 72 75 78 87 94 99 108 114 120 126 134 117 109 91 73 60 52 49 51 53 54 57 64 70 78 97 99 105 113 111 110 111 109 117 121
57 57 59 62 64 67 70 72 74 76 76 79 83 90 99 103 112 116 123 134 133 120 103 83 66 54 47 44 45 50 53 59 63 66 74 91 98 103 109 114 113 113 110 112 120
58 59 63 66 67 71 72 72 76 78 79 82 85 94 101 107 114 122 126 135 132 118 95 79 63 50 44 38 40 47 50 57 61 67 75 83 93 103 109 112 114 112 111 108 118
58 62 65 68 68 70 72 75 77 80 82 84 88 95 102 109 114 123 127 134 129 114 89 77 61 48 40 34 37 44 45 54 60 69 73 78 88 96 106 110 110 113 112 109 115
59 63 65 67 69 71 70 74 77 81 81 85 89 97 103 110 116 122 129 136 134 117 91 74 59 47 39 32 34 39 44 51 59 67 64 82 87 98 102 103 109 113 113 112 112
55 57 62 65 69 70 71 74 77 79 82 86 93 100 104 109 116 122 131 137 134 117 93 75 58 49 41 34 33 36 41 47 57 61 65 80 80 90 99 101 109 114 115 116 115
57 60 65 67 69 67 70 74 77 78 82 89 94 100 106 109 117 124 132 136 134 119 96 77 60 50 42 37 33 33 37 46 52 57 68 76 70 85 99 102 106 112 115 118 118
58 67 68 70 68 65 71 76 77 76 84 90 95 99 105 112 118 126 130 134 136 120 99 80 62 51 43 38 33 32 38 44 46 54 64 69 65 77 94 103 107 113 116 118 119
58 65 70 69 64 66 73 76 77 79 86 91 95 102 107 115 122 126 131 135 141 125 99 82 66 55 45 36 36 32 36 42 44 52 57 61 68 73 91 104 107 111 115 116 118
59 63 67 64 66 70 74 75 76 81 87 93 97 102 109 117 122 127 134 138 142 126 99 81 67 59 47 35 33 34 34 42 47 50 49 63 72 77 90 103 104 108 111 114 116
60 62 63 65 68 71 73 75 78 84 90 94 99 105 114 120 122 129 134 141 144 125 103 83 65 57 53 39 34 32 32 37 43 42 48 58 70 83 93 102 105 104 109 113 115
62 65 68 68 67 71 72 76 80 86 91 94 101 108 115 120 122 129 136 140 141 124 103 85 65 54 53 38 33 31 28 29 38 35 44 52 73 86 92 100 104 106 106 109 113
66 67 65 65 67 69 71 77 84 86 92 97 105 111 115 119 125 131 136 140 140 120 102 86 68 55 52 38 33 29 26 27 29 36 42 57 77 90 92 98 103 105 105 107 111
67 64 63 64 66 70 72 79 82 88 94 99 106 111 116 120 126 135 140 144 135 117 102 85 69 58 49 46 33 27 26 24 29 36 47 61 72 85 91 99 101 104 104 104 108
66 63 59 65 68 69 75 79 85 91 97 101 106 112 117 123 128 134 141 147 134 116 100 85 69 60 55 42 33 27 22 22 30 36 51 58 71 80 89 95 92 99 103 101 104
63 60 60 65 67 70 79 83 89 93 102 108 109 112 117 124 130 137 143 145 132 114 98 83 67 56 54 43 30 26 20 23 30 38 51 56 69 79 86 89 89 94 99 99 100
Wind_Direction
315 306 303 308 313 312 313 317 315 316 315 313 317 317 316 311 309 308 312 311 307 306 305 305 303 301 300 299 299 296 294 260 270 259 245 243 243 237 233 229 229 227 227 225 227
316 315 312 309 311 314 312 315 310 314 312 315 319 318 312 311 311 309 312 311 309 308 307 304 302 303 302 299 299 295 291 280 265 248 242 241 241 238 232 230 228 227 225 226 227
316 317 312 312 312 311 315 316 319 319 319 318 319 320 315 313 311 316 316 313 311 310 309 308 305 302 300 296 295 289 290 274 261 242 233 237 237 238 231 229 228 226 224 224 226
306 311 315 312 314 316 321 320 319 319 320 318 319 318 317 316 309 313 313 313 313 311 310 309 308 304 301 299 293 289 280 264 252 234 228 231 235 236 230 228 226 224 223 224 224
304 310 313 314 316 318 320 319 319 319 318 319 316 316 317 315 313 314 313 315 315 314 312 311 306 305 300 296 290 286 274 260 244 231 224 225 229 231 230 224 226 226 221 223 223
304 308 310 313 314 316 316 318 319 320 321 319 315 316 319 315 317 315 315 316 317 316 317 315 310 305 298 294 289 281 273 259 242 228 223 222 224 226 228 223 226 224 222 219 223
303 306 309 311 314 315 315 317 317 319 321 319 315 318 321 317 317 318 319 318 317 317 317 316 311 305 297 291 287 278 268 255 239 227 220 221 220 226 224 224 222 222 222 219 220
301 305 306 309 314 314 315 315 315 317 319 318 318 319 318 318 320 321 320 321 321 320 318 315 309 303 297 289 280 271 262 250 237 225 219 221 216 220 222 224 220 220 219 219 218
300 303 304 306 309 312 312 315 315 316 319 318 319 320 319 319 321 320 322 324 323 321 320 314 309 303 294 285 275 263 256 244 235 226 221 220 213 217 219 223 219 220 218 218 216
297 299 302 304 306 308 310 312 316 318 319 318 318 316 318 320 320 321 324 325 324 324 323 317 311 302 291 282 273 260 253 242 233 231 222 215 211 215 217 218 219 217 216 216 216
295 297 299 301 303 306 308 311 314 316 316 315 319 319 322 321 322 324 325 326 327 328 324 319 313 303 291 280 269 258 247 238 230 229 222 214 210 215 218 218 219 219 215 214 216
292 295 297 297 300 304 307 310 311 315 316 316 317 320 323 323 325 327 329 331 330 330 326 320 315 306 292 279 266 255 243 237 231 228 224 214 211 215 216 217 219 220 215 215 215
291 293 295 296 298 302 305 309 310 315 317 314 316 319 322 325 327 328 331 335 333 333 328 323 316 309 293 279 265 254 242 234 229 228 223 215 213 212 216 215 216 219 217 213 215
291 291 294 296 298 301 305 308 309 314 315 316 317 318 323 325 328 330 335 337 337 336 331 326 320 311 296 282 267 253 241 234 229 227 222 216 212 209 216 214 216 218 220 213 213
293 294 295 296 298 300 304 307 310 314 316 317 318 321 323 327 328 333 338 339 341 340 334 329 321 314 302 285 266 257 245 234 228 227 222 216 211 213 215 215 214 217 218 215 214
295 297 298 298 299 302 304 306 310 314 315 318 319 322 325 328 331 336 341 341 343 342 337 332 323 317 306 288 270 259 248 234 228 227 222 221 209 214 213 215 215 216 216 216 214
302 303 302 302 301 304 305 306 311 314 316 317 319 321 326 331 332 339 342 343 345 344 340 334 326 319 309 293 273 261 249 241 231 225 219 223 213 211 217 215 215 216 216 215 214
307 307 308 307 305 307 308 310 313 315 318 319 321 325 329 331 334 339 342 345 345 346 342 336 329 322 312 299 283 265 250 243 234 224 218 224 214 209 218 216 215 215 217 216 213
307 306 307 307 307 308 308 311 314 319 319 320 325 328 331 333 335 339 343 346 347 347 344 339 329 323 316 305 289 271 254 241 236 230 220 219 216 210 216 220 214 214 216 216 215
305 304 306 308 308 308 309 312 318 320 320 323 326 329 331 334 337 340 343 346 348 346 345 341 331 326 320 310 294 276 257 246 233 227 220 211 211 210 213 219 215 214 215 217 216
304 304 307 307 309 309 312 317 320 320 322 325 327 331 332 335 338 341 342 346 347 347 344 343 334 328 322 316 299 284 258 246 233 225 218 208 207 206 210 217 219 213 216 217 216
304 307 308 307 309 311 315 318 319 321 324 326 329 331 333 335 339 341 342 345 346 346 344 342 338 328 320 320 307 288 267 249 244 221 216 207 206 208 209 212 217 216 214 217 218
306 307 309 307 309 312 317 318 319 322 323 327 328 331 333 334 340 340 341 344 345 346 344 341 338 330 319 321 307 288 269 249 243 224 210 205 207 211 211 209 215 217 215 217 218
307 309 309 310 310 313 317 319 319 322 325 328 328 330 332 336 339 339 341 343 345 345 344 340 336 332 319 321 309 291 263 247 233 222 202 204 206 212 209 211 212 217 217 215 217
309 313 313 312 314 316 318 318 320 323 326 327 328 331 333 337 338 339 341 343 345 344 344 340 334 329 323 316 307 289 269 245 231 214 206 206 208 211 210 213 209 213 216 216 216
312 313 313 314 317 318 318 318 321 324 325 326 329 331 334 336 338 340 340 342 344 343 343 339 333 328 322 317 312 296 274 250 230 208 211 205 210 210 211 214 212 211 214 214 215
312 313 314 314 315 316 317 319 322 323 325 327 330 332 335 335 337 339 340 341 342 342 342 339 333 329 321 320 312 293 269 245 227 209 212 206 210 213 210 211 212 211 213 214 214
Height
10813 10810 10807 10805 10801 10798 10795 10792 10788 10785 10782 10778 10775 10768 10761 10754 10748 10741 10741 10735 10725 10717 10710 10702 10695 10687 10682 10678 10672 10670 10676 10694 10689 10686 10684 10674 10672 10681 10698 10715 10722 10737 10749 10754 10760
10808 10805 10801 10798 10795 10792 10788 10785 10781 10777 10772 10768 10763 10757 10749 10742 10736 10728 10724 10714 10704 10698 10691 10683 10672 10667 10662 10653 10643 10643 10647 10666 10654 10652 10656 10653 10653 10656 10678 10696 10711 10719 10729 10741 10747
10803 10800 10796 10792 10788 10784 10781 10776 10771 10766 10761 10755 10749 10743 10734 10727 10717 10715 10706 10697 10685 10677 10667 10657 10645 10641 10636 10627 10614 10609 10628 10622 10628 10627 10624 10631 10635 10630 10657 10679 10692 10698 10713 10723 10733
10797 10793 10789 10785 10780 10775 10771 10765 10760 10755 10749 10743 10738 10732 10726 10717 10694 10700 10694 10681 10668 10654 10644 10629 10615 10602 10600 10588 10574 10573 10590 10591 10593 10594 10596 10606 10604 10620 10630 10661 10663 10677 10694 10708 10718
10790 10786 10781 10776 10773 10767 10762 10757 10752 10746 10739 10733 10727 10721 10714 10706 10690 10676 10668 10663 10650 10636 10620 10601 10587 10568 10562 10552 10538 10537 10546 10550 10556 10562 10567 10571 10586 10591 10605 10633 10642 10658 10676 10691 10700
10783 10778 10772 10768 10765 10759 10753 10748 10742 10736 10730 10722 10714 10706 10700 10685 10676 10662 10646 10632 10618 10607 10590 10570 10548 10534 10524 10512 10499 10500 10505 10513 10521 10531 10537 10546 10551 10552 10598 10610 10620 10636 10655 10669 10680
10774 10769 10764 10760 10756 10750 10744 10739 10732 10725 10718 10708 10698 10691 10685 10668 10655 10642 10627 10611 10592 10570 10553 10526 10507 10494 10483 10473 10465 10464 10470 10477 10490 10496 10507 10508 10517 10562 10568 10574 10590 10613 10632 10649 10662
10765 10760 10755 10750 10747 10741 10735 10729 10722 10714 10707 10696 10686 10677 10667 10656 10636 10620 10604 10585 10566 10542 10520 10495 10475 10456 10442 10437 10434 10430 10439 10447 10455 10464 10473 10473 10515 10533 10537 10549 10570 10585 10606 10624 10641
10757 10752 10746 10740 10737 10732 10724 10719 10712 10703 10693 10681 10671 10658 10650 10638 10625 10607 10588 10566 10542 10520 10494 10464 10443 10423 10411 10404 10404 10403 10410 10423 10429 10435 10441 10458 10498 10501 10509 10519 10541 10558 10581 10600 10618
10748 10743 10737 10729 10724 10722 10713 10706 10699 10692 10682 10669 10660 10647 10637 10619 10602 10583 10560 10534 10508 10481 10448 10427 10411 10394 10382 10377 10376 10380 10390 10399 10405 10408 10419 10437 10465 10456 10470 10486 10505 10523 10550 10576 10598
10738 10734 10727 10719 10711 10707 10703 10695 10688 10681 10671 10657 10644 10631 10619 10601 10582 10559 10537 10507 10478 10444 10415 10395 10381 10366 10356 10352 10349 10356 10364 10369 10377 10380 10391 10413 10431 10432 10448 10468 10488 10510 10533 10554 10577
10726 10722 10716 10708 10700 10694 10687 10680 10672 10664 10655 10638 10628 10614 10600 10584 10561 10539 10514 10485 10453 10419 10390 10368 10356 10341 10335 10329 10328 10330 10338 10345 10350 10354 10370 10392 10414 10420 10430 10458 10479 10489 10514 10544 10560
10713 10710 10704 10697 10689 10681 10674 10667 10656 10647 10638 10624 10610 10596 10581 10564 10541 10516 10491 10464 10430 10395 10364 10346 10334 10320 10313 10308 10309 10310 10316 10321 10330 10341 10353 10370 10392 10406 10417 10433 10455 10472 10495 10522 10545
10700 10696 10691 10685 10679 10668 10661 10653 10642 10633 10623 10610 10596 10579 10563 10543 10522 10495 10469 10438 10407 10376 10342 10324 10314 10301 10295 10293 10292 10290 10296 10302 10313 10321 10329 10350 10370 10386 10392 10416 10436 10458 10478 10509 10526
10689 10683 10677 10670 10667 10659 10649 10638 10628 10619 10605 10594 10580 10564 10546 10527 10505 10481 10453 10423 10389 10361 10332 10308 10296 10285 10281 10279 10274 10273 10282 10285 10295 10298 10312 10333 10356 10371 10376 10397 10426 10442 10461 10483 10502
10678 10670 10664 10658 10652 10645 10636 10626 10616 10606 10592 10578 10564 10549 10531 10510 10486 10462 10432 10404 10371 10342 10316 10294 10281 10272 10269 10266 10262 10261 10262 10267 10273 10281 10313 10308 10334 10344 10362 10385 10404 10420 10439 10459 10482
10664 10658 10650 10644 10638 10631 10623 10613 10604 10595 10580 10566 10552 10535 10516 10495 10466 10444 10416 10386 10357 10329 10301 10283 10268 10259 10255 10253 10249 10248 10248 10250 10256 10272 10291 10289 10318 10343 10348 10364 10382 10398 10414 10433 10455
10652 10645 10636 10630 10625 10617 10608 10598 10591 10582 10568 10552 10538 10519 10501 10481 10454 10429 10404 10373 10340 10313 10291 10272 10254 10247 10243 10240 10237 10236 10234 10234 10241 10255 10261 10273 10313 10331 10327 10345 10364 10380 10395 10412 10431
10646 10631 10625 10617 10611 10605 10594 10587 10579 10568 10554 10540 10524 10506 10484 10463 10440 10412 10385 10356 10325 10301 10279 10260 10244 10236 10231 10227 10225 10222 10220 10219 10228 10236 10246 10266 10298 10312 10313 10320 10338 10352 10370 10389 10409
10639 10624 10612 10605 10599 10592 10582 10574 10563 10553 10539 10524 10508 10491 10470 10447 10423 10395 10369 10346 10317 10289 10267 10251 10235 10224 10218 10216 10211 10208 10205 10207 10213 10218 10232 10260 10272 10291 10296 10294 10312 10338 10354 10372 10393
10626 10617 10604 10595 10587 10579 10571 10560 10549 10538 10525 10508 10489 10473 10452 10434 10404 10380 10353 10332 10306 10281 10258 10242 10224 10211 10204 10203 10199 10193 10192 10191 10196 10205 10222 10239 10250 10262 10272 10277 10295 10321 10339 10356 10374
10614 10606 10596 10585 10576 10568 10559 10546 10536 10523 10508 10492 10472 10455 10434 10414 10391 10363 10340 10313 10291 10270 10248 10230 10218 10203 10190 10187 10183 10179 10178 10181 10184 10197 10207 10221 10238 10238 10243 10258 10276 10301 10319 10335 10355
10602 10593 10583 10572 10567 10556 10547 10533 10525 10511 10491 10478 10458 10443 10423 10399 10380 10355 10330 10304 10280 10257 10236 10218 10206 10195 10183 10180 10172 10166 10165 10167 10173 10187 10195 10208 10218 10216 10226 10243 10258 10275 10301 10321 10337
10587 10579 10570 10560 10554 10545 10536 10522 10508 10495 10479 10464 10444 10429 10410 10385 10364 10341 10318 10295 10269 10246 10226 10206 10192 10183 10173 10170 10162 10156 10154 10157 10165 10174 10182 10185 10187 10190 10211 10221 10243 10261 10280 10302 10320
10572 10566 10555 10545 10540 10530 10522 10508 10495 10482 10466 10451 10434 10414 10395 10375 10353 10326 10299 10279 10257 10236 10217 10199 10183 10170 10164 10158 10153 10146 10144 10148 10152 10159 10164 10164 10172 10179 10195 10199 10221 10244 10261 10287 10305
10557 10551 10546 10531 10525 10516 10504 10495 10480 10465 10450 10440 10422 10400 10380 10359 10340 10318 10293 10267 10243 10222 10207 10190 10175 10160 10147 10149 10144 10138 10136 10139 10140 10145 10145 10153 10157 10167 10180 10192 10218 10234 10248 10270 10294
10544 10538 10531 10520 10513 10505 10490 10478 10465 10452 10434 10415 10403 10385 10364 10345 10326 10304 10281 10255 10231 10209 10193 10180 10167 10154 10138 10134 10133 10128 10126 10127 10128 10132 10133 10141 10147 10150 10166 10187 10206 10224 10241 10260 10282